This is the latest recevied weather packets stored in our database for station/object K5YNC. If no packets are shown the sender has not sent any weather packets the latest 10 day(s).
| Time | Temp. | Humidity | Pressure | Rain* | Wind** | Luminosity | Snow |
|---|---|---|---|---|---|---|---|
| 1788136231 | 95° F | 35% | 761.5 mmHg | 0 in | - | 19 W/m² | - |
| 1788135929 | 96° F | 35% | 761.6 mmHg | 0 in | - | 22 W/m² | - |
| 1788135625 | 96° F | 34% | 761.6 mmHg | 0 in | - | 25 W/m² | - |
| 1788135320 | 96° F | 33% | 761.6 mmHg | 0 in | - | 28 W/m² | - |
| 1788135017 | 97° F | 33% | 761.5 mmHg | 0 in | - | 30 W/m² | - |
| 1788134713 | 97° F | 33% | 761.7 mmHg | 0 in | - | 33 W/m² | - |
| 1788134412 | 97° F | 33% | 761.8 mmHg | 0 in | - | 35 W/m² | - |
| 1788134106 | 97° F | 33% | 761.7 mmHg | 0 in | - | 37 W/m² | - |
| 1788133795 | 97° F | 33% | 761.6 mmHg | 0 in | - | 39 W/m² | - |
| 1788133490 | 98° F | 33% | 761.3 mmHg | 0 in | - | 42 W/m² | - |
| 1788133186 | 98° F | 33% | 761.6 mmHg | 0 in | - | 44 W/m² | - |
| 1788132881 | 98° F | 32% | 761.5 mmHg | 0 in | - | 46 W/m² | - |
| 1788132577 | 98° F | 32% | 761.8 mmHg | 0 in | - | 47 W/m² | - |
| 1788132273 | 98° F | 32% | 761.6 mmHg | 0 in | - | 53 W/m² | - |
| 1788131970 | 98° F | 32% | 761.6 mmHg | 0 in | - | 55 W/m² | - |
| 1788131669 | 98° F | 32% | 761.8 mmHg | 0 in | - | 61 W/m² | - |
| 1788131369 | 99° F | 32% | 761.6 mmHg | 0 in | - | 61 W/m² | - |
| 1788131064 | 99° F | 31% | 761.7 mmHg | 0 in | - | 58 W/m² | - |
| 1788130763 | 99° F | 31% | 761.8 mmHg | 0 in | - | 59 W/m² | - |
| 1788130460 | 99° F | 32% | 761.7 mmHg | 0 in | - | 62 W/m² | - |
| 1788130154 | 100° F | 31% | 761.8 mmHg | 0 in | - | 64 W/m² | - |
| 1788129853 | 99° F | 30% | 761.6 mmHg | 0 in | - | 61 W/m² | - |
| 1788129550 | 99° F | 31% | 761.6 mmHg | 0 in | - | 63 W/m² | - |
| 1788129246 | 100° F | 31% | 761.5 mmHg | 0 in | - | 65 W/m² | - |
| 1788128945 | 100° F | 31% | 761.6 mmHg | 0 in | - | 81 W/m² | - |
* Rain latest hour (hover to see other rain measurements)
** Current wind speed in m/s (hover to see current wind gust speed)